{"data":{"norad_id":60412,"intl_designator":"2024-141Q","name":"STARLINK-32186","alt_names":[],"object_type":"PAYLOAD","status":"ACTIVE","operator":null,"country":"US","launch_date":"2024-08-10","launch_site_code":"AFETR","launch_vehicle":null,"mission":null,"orbit_class":"UNKNOWN","rcs_meters":null,"size_class":null,"mass_kg":null,"dimensions":null,"purposes":["comms"],"wikipedia_slug":null,"has_3d_model":false,"image_url":null,"decayed_at":null,"tle_current":{"epoch":"2026-09-21T17:12:11.051712Z","epoch_age_seconds":80398,"freshness":"FRESH","line1":"1 60412U 24141Q   26264.71679458 -.00000008  00000+0  10911-4 0  9996","line2":"2 60412  53.1606  47.7809 0001318  62.7864 297.3273 15.34390426119592","mean_motion":15.34390426,"eccentricity":0.0001318,"inclination_deg":53.1606,"raan_deg":47.7809,"arg_perigee_deg":62.7864,"mean_anomaly_deg":297.3273,"bstar":1.0911e-5,"rev_number":11959,"period_min":93.848343654876,"perigee_km":461.83006980652,"apogee_km":463.63332279487,"semimajor_km":6840.8686963007,"source":"CELESTRAK","updated_at":"2026-09-22T09:00:49.231672Z"}}}